Tacoma, WA

2:32 AM PDT on August 22, 2017 (GMT -0700)
McChord Air Force Base

Weather History for KTCM - December, 2011

Change the Weather History Date:

Sunday, December 25, 2011

  Actual Average Record
Temperature  
Mean Temperature 42 °F -  
Max Temperature 48 °F 43 °F 64 °F (1980)
Min Temperature 36 °F 31 °F 16 °F (1962)
Degree Days  
Heating Degree Days 23    
Moisture  
Dew Point 41 °F    
Average Humidity 93    
Maximum Humidity 100    
Minimum Humidity 60    
Precipitation  
Precipitation 0.13 in - - ()
Sea Level Pressure  
Sea Level Pressure 30.16 in    
Wind  
Wind Speed 12 mph (SSW)    
Max Wind Speed 32 mph    
Max Gust Speed 45 mph    
Visibility 9 miles    
Events Rain    
Averages and records for this station are not official NWS values.
T = Trace of Precipitation, MM = Missing Value Source: NWS Daily Summary

Daily Weather History Graph

Daily Weather History Graph

Search for Another Location

Airport or City:

Trip Planner

Search our weather history database for the weather conditions in past years. The results will help you decide how hot, cold, wet, or windy it might be!

Date:

Astronomy

Dec. 25, 2011 Rise Set
Actual Time 7:55 AM PST 4:25 PM PST
Civil Twilight 7:19 AM PST 5:00 PM PST
Nautical Twilight 6:40 AM PST 5:39 PM PST
Astronomical Twilight 6:03 AM PST 6:16 PM PST
Moon 8:34 AM PST (12/25) 5:56 PM PST (12/25)
Length of Visible Light 9h 41m
Length of Day
8h 29m
New Moon, 2% of the Moon is Illuminated
Dec 25
New Moon
Dec 31
First Quarter
Jan 8
Full
Jan 16
Last Quarter
Jan 22
New

Hourly Weather History & Observations

Time (PST) Temp. Windchill Dew Point Humidity Pressure Visibility Wind Dir Wind Speed Gust Speed Precip Events Conditions
12:55 AM 36.3 °F - 36.3 °F 100% 30.18 in 8.0 mi Calm Calm - N/A   Scattered Clouds
1:55 AM 37.4 °F 33.8 °F 37.4 °F 100% 30.17 in 10.0 mi South 4.6 mph - N/A   Scattered Clouds
2:55 AM 37.9 °F 35.5 °F 37.9 °F 100% 30.15 in 6.0 mi SE 3.5 mph - N/A   Mostly Cloudy
3:55 AM 39.9 °F 35.1 °F 39.9 °F 100% 30.09 in 10.0 mi ESE 6.9 mph - N/A   Mostly Cloudy
5:55 AM 36.7 °F - 36.5 °F 99% 30.07 in 9.0 mi Calm Calm - N/A   Mostly Cloudy
6:55 AM 37.4 °F - 37.0 °F 99% 30.06 in 10.0 mi Calm Calm - N/A   Overcast
7:55 AM 36.5 °F - 36.3 °F 99% 30.01 in 8.0 mi Calm Calm - N/A   Clear
8:55 AM 37.8 °F 34.2 °F 37.6 °F 99% 30.01 in 10.0 mi South 4.6 mph - N/A   Clear
9:29 AM 41.0 °F 35.8 °F 39.2 °F 93% 30.01 in 10.0 mi SW 8.1 mph - N/A Rain Light Rain
9:55 AM 48.0 °F - 34.9 °F 60% 30.01 in 10.0 mi SSW 23.0 mph 29.9 mph 0.00 in Rain Light Rain
10:55 AM 48.0 °F - 41.0 °F 77% 30.03 in 10.0 mi South 26.5 mph 34.5 mph 0.01 in   Light Drizzle
11:04 AM 48.2 °F - 41.0 °F 76% 30.04 in 10.0 mi South 27.6 mph 34.5 mph N/A   Overcast
11:05 AM 48.2 °F - 41.0 °F 76% 30.04 in 10.0 mi South 32.2 mph 44.9 mph N/A   Overcast
11:08 AM 48.2 °F - 41.0 °F 76% 30.04 in 10.0 mi SSW 27.6 mph 44.9 mph N/A   Overcast
11:09 AM 48.2 °F - 41.0 °F 76% 30.04 in 9.0 mi SSW 31.1 mph 44.9 mph N/A Rain Light Rain
11:22 AM 46.4 °F 37.4 °F 42.8 °F 87% 30.06 in 7.0 mi SSW 28.8 mph 43.7 mph N/A Rain Light Rain
11:23 AM 46.4 °F 37.2 °F 42.8 °F 87% 30.06 in 7.0 mi SSW 29.9 mph 43.7 mph N/A Rain Light Rain
11:24 AM 46.4 °F 37.2 °F 42.8 °F 87% 30.06 in 7.0 mi SSW 29.9 mph 43.7 mph N/A Rain Light Rain
11:31 AM 46.4 °F 37.9 °F 42.8 °F 87% 30.07 in 8.0 mi SSW 25.3 mph 36.8 mph N/A Rain Light Rain
11:32 AM 46.4 °F 37.5 °F 42.8 °F 87% 30.07 in 8.0 mi SSW 27.6 mph 36.8 mph N/A Rain Light Rain
11:34 AM 46.4 °F 38.3 °F 42.8 °F 87% 30.08 in 7.0 mi South 23.0 mph 36.8 mph N/A Rain Light Rain
11:36 AM 44.6 °F 34.9 °F 42.8 °F 93% 30.07 in 7.0 mi South 28.8 mph 40.3 mph N/A Rain Light Rain
11:55 AM 44.4 °F 35.7 °F 43.2 °F 95% 30.10 in 8.0 mi SSW 23.0 mph 29.9 mph 0.03 in Rain Light Rain
12:11 PM 44.6 °F 37.2 °F 42.8 °F 93% 30.11 in 10.0 mi SSW 17.3 mph 26.5 mph N/A   Mostly Cloudy
12:21 PM 44.6 °F 37.2 °F 42.8 °F 93% 30.12 in 10.0 mi SSW 17.3 mph 26.5 mph N/A   Mostly Cloudy
12:22 PM 44.6 °F 37.2 °F 42.8 °F 93% 30.12 in 10.0 mi SSW 17.3 mph 26.5 mph N/A Rain Light Rain
12:55 PM 43.7 °F 36.0 °F 43.3 °F 99% 30.13 in 10.0 mi SSW 17.3 mph 24.2 mph 0.01 in Rain Light Rain
1:04 PM 44.6 °F 38.1 °F 42.8 °F 93% 30.13 in 10.0 mi SSW 13.8 mph 25.3 mph N/A Rain Light Rain
1:55 PM 43.9 °F 37.2 °F 43.5 °F 99% 30.15 in 10.0 mi SSW 13.8 mph - 0.04 in Rain Light Rain
1:58 PM 44.6 °F 37.4 °F 42.8 °F 93% 30.15 in 10.0 mi SSW 16.1 mph - N/A Rain Light Rain
2:03 PM 44.6 °F 38.1 °F 42.8 °F 93% 30.16 in 9.0 mi SSW 13.8 mph - N/A   Overcast
2:05 PM 44.6 °F 38.8 °F 42.8 °F 93% 30.16 in 8.0 mi SSW 11.5 mph - N/A   Overcast
2:13 PM 44.6 °F 40.2 °F 42.8 °F 93% 30.17 in 5.0 mi SSW 8.1 mph - N/A Rain Light Rain
2:16 PM 44.6 °F 38.4 °F 42.8 °F 93% 30.17 in 6.0 mi SW 12.7 mph 19.6 mph N/A Rain Light Rain
2:17 PM 44.6 °F 38.8 °F 42.8 °F 93% 30.17 in 6.0 mi SSW 11.5 mph 19.6 mph N/A Rain Light Rain
2:20 PM 44.6 °F 38.8 °F 42.8 °F 93% 30.18 in 7.0 mi SW 11.5 mph 19.6 mph N/A Rain Light Rain
2:30 PM 44.6 °F 38.1 °F 42.8 °F 93% 30.18 in 5.0 mi SSW 13.8 mph 28.8 mph N/A Rain Light Rain
2:33 PM 44.6 °F 38.8 °F 42.8 °F 93% 30.18 in 5.0 mi SSW 11.5 mph - N/A Rain Light Rain
2:39 PM 44.6 °F 38.4 °F 42.8 °F 93% 30.19 in 10.0 mi SSW 12.7 mph 19.6 mph N/A   Overcast
2:47 PM 44.6 °F 38.8 °F 42.8 °F 93% 30.19 in 10.0 mi SSW 11.5 mph - N/A Rain Light Rain
2:55 PM 43.9 °F 36.2 °F 43.5 °F 99% 30.20 in 4.0 mi SSW 17.3 mph 23.0 mph 0.04 in Rain Light Rain
3:01 PM 44.6 °F 37.8 °F 41.0 °F 87% 30.20 in 6.0 mi SW 15.0 mph 23.0 mph N/A Rain Light Rain
3:02 PM 44.6 °F 38.1 °F 41.0 °F 87% 30.21 in 7.0 mi SW 13.8 mph 23.0 mph N/A Rain Light Rain
3:10 PM 44.6 °F 38.1 °F 41.0 °F 87% 30.21 in 10.0 mi SW 13.8 mph - N/A   Mostly Cloudy
3:24 PM 44.6 °F 38.8 °F 42.8 °F 93% 30.22 in 10.0 mi SSW 11.5 mph - N/A   Scattered Clouds
3:27 PM 44.6 °F 39.2 °F 42.8 °F 93% 30.23 in 10.0 mi SSW 10.4 mph - N/A   Mostly Cloudy
3:55 PM 42.8 °F 36.6 °F 42.4 °F 99% 30.24 in 10.0 mi South 11.5 mph - 0.00 in   Mostly Cloudy
3:57 PM 42.8 °F 37.0 °F 42.8 °F 100% 30.24 in 10.0 mi South 10.4 mph - N/A   Mostly Cloudy
4:00 PM 42.8 °F 37.0 °F 42.8 °F 100% 30.25 in 10.0 mi South 10.4 mph - N/A   Mostly Cloudy
4:05 PM 42.8 °F 37.5 °F 42.8 °F 100% 30.25 in 10.0 mi SSW 9.2 mph - N/A   Mostly Cloudy
4:55 PM 41.7 °F 35.2 °F 40.8 °F 97% 30.29 in 10.0 mi SSW 11.5 mph - N/A   Scattered Clouds
5:55 PM 38.3 °F 31.9 °F 38.1 °F 99% 30.32 in 10.0 mi South 9.2 mph - N/A   Clear
6:55 PM 39.0 °F 31.4 °F 38.7 °F 99% 30.34 in 10.0 mi South 12.7 mph - N/A   Clear
7:55 PM 39.2 °F 32.5 °F 38.7 °F 98% 30.37 in 10.0 mi South 10.4 mph - N/A   Clear
8:55 PM 38.8 °F 32.6 °F 38.3 °F 98% 30.38 in 10.0 mi South 9.2 mph - N/A   Partly Cloudy
9:55 PM 37.4 °F 32.1 °F 37.2 °F 99% 30.39 in 10.0 mi SSE 6.9 mph - N/A   Clear
10:55 PM 38.3 °F 34.8 °F 37.9 °F 99% 30.38 in 10.0 mi SE 4.6 mph - N/A   Clear
11:45 PM 37.4 °F 33.8 °F 37.4 °F 100% 30.38 in 10.0 mi SSE 4.6 mph - N/A   Mostly Cloudy
11:55 PM 38.1 °F 33.7 °F 37.8 °F 99% 30.38 in 10.0 mi South 5.8 mph - N/A   Mostly Cloudy